Regional Weather Roundup
Issued by NWS

Home | Current Version | Previous Version | Text Only | Print | Product List | Glossary Off
Versions: 1 2 3 4 5 6 7 8 9 10 11 12 13 14 15 16 17 18 19 20 21 22 23 24 25 26 27 28 29 30 31 32 33 34 35 36 37 38 39 40 41 42 43 44 45 46 47 48 49 50

980
ASUS45 KPSR 231810
RWRAZ

ARIZONA HOURLY REGIONAL WEATHER ROUNDUP
NATIONAL WEATHER SERVICE PHOENIX AZ
1100 AM MST SUN JUL 23 2017

NOTE: FAIR INDICATES FEW OR NO CLOUDS BELOW 12,000 FEET WITH NO
SIGNIFICANT WEATHER AND/OR OBSTRUCTIONS TO VISIBILITY.

AZZ001>003-036-231900-
NORTHWEST ARIZONA

CITY           SKY/WX    TMP DP  RH WIND       PRES   REMARKS
KINGMAN        SUNNY     91  59  33 SW9       30.01F
6HR MIN TEMP:  71; 6HR MAX TEMP:  91;

$$

AZZ004>008-015-016-018-231900-
NORTH CENTRAL ARIZONA

CITY           SKY/WX    TMP DP  RH WIND       PRES   REMARKS
GRAND CANYON   MOSUNNY   83  49  30 NE7       30.26S
6HR MIN TEMP:  63; 6HR MAX TEMP:  83;

WILLIAMS       MOSUNNY   77  54  44 VRB3      30.26S
PRESCOTT       PTSUNNY   77  64  64 S3        30.16S
6HR MIN TEMP:  67; 6HR MAX TEMP:  78;

FLAGSTAFF      MOSUNNY   76  55  48 NE10      30.29S
6HR MIN TEMP:  57; 6HR MAX TEMP:  76;

PAYSON         MOSUNNY   81  63  54 VRB6      30.19S
PAGE           SUNNY     91  53  27 N8        30.07F
6HR MIN TEMP:  75; 6HR MAX TEMP:  91;

$$

AZZ009>014-017-231900-
NORTHEAST ARIZONA

CITY           SKY/WX    TMP DP  RH WIND       PRES   REMARKS
WINSLOW        SUNNY     85  57  38 SE8       30.14F
6HR MIN TEMP:  65; 6HR MAX TEMP:  86;

SAINT JOHNS    MOSUNNY   81  52  36 VRB3      30.19S
6HR MIN TEMP:  60; 6HR MAX TEMP:  83;

WINDOW ROCK    MOSUNNY   79  51  37 E6        30.28S
6HR MIN TEMP:  56; 6HR MAX TEMP:  81;

SHOW LOW       MOSUNNY   73  55  53 SW6       30.25F
$$

AZZ540-542>544-546-548-231900-
GREATER PHOENIX AREA

CITY           SKY/WX    TMP DP  RH WIND       PRES   REMARKS
PHOENIX        PTSUNNY   95  64  35 CALM      29.87F
6HR MIN TEMP:  86; 6HR MAX TEMP:  95;

BUCKEYE        CLOUDY    91  66  43 SE5       29.89S
GLENDALE       PTSUNNY   95  63  34 SW7       29.89F
LUKE AFB       SUNNY     94  63  35 SW10      29.87F
6HR MIN TEMP:  85; 6HR MAX TEMP:  94;

DEER VALLEY    PTSUNNY   93  65  39 CALM      29.89F
6HR MIN TEMP:  83; 6HR MAX TEMP:  93;

SCOTTSDALE     MOSUNNY   94  63  35 CALM      29.91F
6HR MIN TEMP:  83; 6HR MAX TEMP:  94;

MESA-FALCON    MOSUNNY   91  68  46 VRB6      29.91S
MESA-GATEWAY   MOSUNNY   91  66  43 CALM      29.91F
CHANDLER       SUNNY     93  64  38 VRB5      29.90S
$$

AZZ539-553-231900-
SOUTHWEST MARICOPA COUNTY AND PINAL COUNTY

CITY           SKY/WX    TMP DP  RH WIND       PRES   REMARKS
CASA GRANDE    CLOUDY    92  67  43 W6        29.91F
6HR MIN TEMP:  83; 6HR MAX TEMP:  94;

GILA BEND      FAIR      94  65  38 W3        29.86S
6HR MIN TEMP:  86; 6HR MAX TEMP:  95; 6HR PCP: TRACE;

$$

AZZ503-504-507>509-231900-
SOUTHEAST ARIZONA

CITY           SKY/WX    TMP DP  RH WIND       PRES   REMARKS
TUCSON         SUNNY     87  67  51 CALM      30.01F
6HR MIN TEMP:  75; 6HR MAX TEMP:  87;

DAVIS-MONTHAN  MOSUNNY   88  68  51 N3        30.00F
6HR MIN TEMP:  74; 6HR MAX TEMP:  88; 6HR PCP: TRACE;

RYAN FIELD     SUNNY     86  68  54 W5        29.99F
NOGALES        PTSUNNY   78  67  68 VRB5      30.08F
6HR MIN TEMP:  68; 6HR MAX TEMP:  78; 6HR PCP:  0.10;

SIERRA VISTA   PTSUNNY   79  65  62 N7        30.15S
6HR MIN TEMP:  66; 6HR MAX TEMP:  79; 6HR PCP:  0.08;

DOUGLAS        LGT RAIN  74  68  81 MISG      30.11S
6HR MIN TEMP:  68; 6HR MAX TEMP:  77; 6HR PCP: TRACE;

SAFFORD        PTSUNNY   86  66  51 E6        30.02F
6HR MIN TEMP:  72; 6HR MAX TEMP:  87; 6HR PCP: TRACE;

$$

AZZ532-231900-
SOUTHWEST ARIZONA

CITY           SKY/WX    TMP DP  RH WIND       PRES   REMARKS
YUMA           MOSUNNY   98  62  30 S21       29.81R
6HR MIN TEMP:  87; 6HR MAX TEMP:  99;

$$

CAZ041-043-047-048-061-525>527-560>570-231900-
SOUTHERN CALIFORNIA

CITY           SKY/WX    TMP DP  RH WIND       PRES   REMARKS
DOWNTOWN L.A.  SUNNY     83  65  54 VRB3      29.88F
6HR MIN TEMP:  68; 6HR MAX TEMP:  84;

L.A. AIRPORT   MOSUNNY   75  66  73 W10       29.90S
6HR MIN TEMP:  68; 6HR MAX TEMP:  76;

SAN DIEGO      MOSUNNY   72  60  66 SW6       29.92S
6HR MIN TEMP:  69; 6HR MAX TEMP:  72;

BURBANK        SUNNY     80  62  54 SE8       29.90S
6HR MIN TEMP:  67; 6HR MAX TEMP:  81;

ONTARIO        MOSUNNY   84  60  44 S6        29.90F
6HR MIN TEMP:  67; 6HR MAX TEMP:  85;

RIVERSIDE      SUNNY     84  64  50 VRB5      29.90S
6HR MIN TEMP:  66; 6HR MAX TEMP:  84;

PALM SPRINGS   SUNNY    100  60  26 E5        29.80F HX 100
6HR MIN TEMP:  85; 6HR MAX TEMP: 100;

EL CENTRO NAS  SUNNY     97  70  41 SE6       29.79S HX 103
6HR MIN TEMP:  83; 6HR MAX TEMP:  97;

IMPERIAL       SUNNY     97  73  45 SE9       29.76S HX 107
6HR MIN TEMP:  85; 6HR MAX TEMP:  98;

BLYTHE         MOSUNNY   99  62  29 S15       29.81R HX 100
6HR MIN TEMP:  90; 6HR MAX TEMP:  99;

NEEDLES        SUNNY    104  57  21 SW8G16    29.81S HX 103
6HR MIN TEMP:  92; 6HR MAX TEMP: 105;

$$

NVZ020-UTZ003-231900-
SOUTHERN NEVADA-UTAH

CITY           SKY/WX    TMP DP  RH WIND       PRES   REMARKS
LAS VEGAS      MOSUNNY   99  58  25 SE6       29.88F
6HR MIN TEMP:  88; 6HR MAX TEMP: 100;

SALT LAKE CITY MOSUNNY   93  43  17 VRB3      30.07S
6HR MIN TEMP:  71; 6HR MAX TEMP:  93;

$$

NMZ009-TXZ055-231900-
NEW MEXICO-WEST TEXAS

CITY           SKY/WX    TMP DP  RH WIND       PRES   REMARKS
ALBUQUERQUE    PTSUNNY   81  58  45 SW9       30.20S
6HR MIN TEMP:  69; 6HR MAX TEMP:  84;

EL PASO        MOSUNNY   82  66  58 CALM      30.09F
6HR MIN TEMP:  72; 6HR MAX TEMP:  83;

$$


........................KEY........................
SKY/WX - SKY CONDITION/WEATHER
TMP    - TEMPERATURE IN FAHRENHEIT
DP     - DEW POINT IN FAHRENHEIT
RH     - RELATIVE HUMIDITY IN PERCENT
WIND   - DIRECTION AND SPEED IN MILES PER HOUR (MPH)
VRB    - VARIABLE WIND DIRECTION
PRES   - MEAN SEA LEVEL PRESSURE IN INCHES OF MERCURY
         F - FALLING PRESSURE   R - RISING PRESSURE
         S - STEADY PRESSURE
VSB    - VISIBILITY IN MILES
HX     - HEAT INDEX IN FAHRENHEIT
WCI    - WIND CHILL INDEX IN FAHRENHEIT
TC     - TEMPERATURE IN CELSIUS WHICH IS ALSO KNOWN AS
         TEMPERATURE IN CENTIGRADE
AFB    - AIR FORCE BASE
         LUKE AFB IS LUKE AIR FORCE BASE
         DAVIS-MONTHAN IS DAVIS-MONTHAN AIR FORCE BASE
NAS    - NAVAL AIR STATION
         EL CENTRO NAS IS EL CENTRO NAVAL AIR STATION
N/A    - NOT AVAILABLE





USA.gov is the U.S. government's official web portal to all federal, state and local government web resources and services.